RH
70 72 66 63 59 64 63 63 66 66 66 64 64 63 60 56 54 52 50 45 42 42
72 72 73 69 60 61 60 62 67 67 69 62 63 57 50 46 43 42 46 47 46 45
65 67 65 66 63 63 61 65 65 63 60 58 57 53 45 44 40 41 46 46 46 46
64 64 61 62 62 62 61 61 59 57 56 53 51 45 38 40 42 43 47 51 50 53
66 66 67 66 65 62 61 58 54 54 50 47 43 35 36 38 41 47 54 60 55 51
75 74 76 73 76 66 60 57 52 50 49 45 46 37 40 40 49 59 58 51 43 45
86 88 88 80 70 67 58 54 54 52 50 54 47 44 47 53 63 63 59 54 46 42
92 90 83 75 69 64 60 57 53 55 58 57 52 52 61 63 64 65 64 54 48 57
86 80 78 75 70 67 66 65 61 63 63 59 53 72 68 67 59 52 50 51 51 54
82 84 83 79 80 79 79 74 74 80 72 75 76 74 71 67 56 49 50 52 51 45
83 83 81 83 84 83 81 84 80 83 82 86 85 81 72 65 60 51 54 54 48 49
79 81 81 84 83 84 85 86 80 84 87 89 86 76 68 58 49 50 53 52 52 52
80 83 83 82 84 84 82 85 84 86 87 83 80 72 65 55 51 52 53 51 51 67
82 83 79 79 78 80 81 83 81 82 81 79 75 68 67 61 52 53 50 50 53 56
Wind_Speed
13 9 9 12 10 10 10 11 12 10 9 8 8 7 7 5 5 6 5 7 6 5
13 12 10 12 13 11 12 10 13 11 10 10 8 8 9 6 7 7 6 6 6 5
17 15 15 12 15 14 13 13 13 13 12 11 9 8 8 7 7 7 5 5 5 6
17 17 16 15 15 15 15 15 14 13 12 12 11 10 9 8 8 8 7 6 7 5
17 17 17 16 16 15 16 15 15 12 12 12 11 12 11 10 8 9 8 4 6 6
16 16 16 16 12 13 14 13 14 14 13 14 11 13 10 12 10 8 7 5 5 4
16 15 13 12 12 12 13 14 13 11 12 10 10 10 12 11 11 8 6 6 6 3
10 11 11 12 12 12 12 11 13 15 13 12 11 8 9 7 9 10 9 7 5 4
10 10 10 12 12 12 12 12 13 12 11 13 7 21 15 11 6 8 8 9 7 6
10 11 10 11 13 13 13 14 15 14 12 9 11 17 18 18 8 6 6 7 6 4
11 12 12 13 13 12 13 13 14 11 16 11 11 18 18 16 8 7 7 6 5 4
14 14 14 14 14 14 14 13 13 13 15 13 12 19 18 13 10 9 7 5 5 3
13 13 14 14 14 13 12 13 11 12 12 17 11 17 18 11 7 8 6 5 4 4
11 12 13 13 13 14 14 14 13 13 11 12 11 12 15 12 6 6 5 4 3 2
Wind_Direction
192 187 189 188 182 184 189 185 172 173 164 159 154 148 141 127 116 115 112 108 95 86
191 189 186 180 192 189 188 177 174 171 156 157 153 155 144 136 131 129 123 114 111 104
199 194 193 183 192 188 184 173 171 171 160 154 145 145 139 136 141 137 127 122 113 110
202 201 200 195 194 190 179 175 174 171 156 152 149 152 150 144 143 136 128 122 113 97
202 200 201 198 194 188 184 174 168 158 149 149 154 160 153 147 142 132 126 121 116 133
197 192 193 191 174 165 162 161 156 151 157 159 154 156 150 140 131 122 119 129 124 120
186 180 173 166 161 159 162 156 152 149 145 142 140 143 139 134 128 114 106 118 112 108
173 163 150 153 153 149 152 154 151 143 137 133 136 132 133 138 131 131 132 126 123 118
135 138 145 141 146 137 141 137 133 129 130 136 129 134 137 121 135 137 141 141 134 135
134 133 133 134 134 138 141 135 134 131 133 121 121 135 137 131 123 153 144 132 135 136
143 138 138 138 139 139 138 137 144 138 130 134 138 149 142 129 130 143 129 125 123 124
160 150 149 149 148 143 138 143 144 144 134 135 143 152 142 137 145 141 130 134 122 132
158 155 156 152 147 144 137 134 141 133 124 138 139 153 144 149 145 138 147 134 138 95
149 149 144 139 140 137 136 128 130 123 121 127 145 147 148 147 136 151 140 151 135 107